CAPE
0 0 0 0 0 0 0 0 0 0 0 0 0 0 0 0 10 33 84 89 15 13 0 0 128 3 0 0 0 0 0 0 0 0 314 1707 1606 1591 1275 1227 1103 849 618 622
0 0 0 0 0 0 0 0 0 0 0 0 0 0 0 0 31 51 111 140 140 129 118 0 0 62 41 27 1 0 0 0 0 0 0 259 1942 1874 1565 1329 1281 1009 847 846
0 0 0 0 0 0 0 0 0 0 0 0 0 0 0 0 37 35 45 177 116 72 97 222 66 5 0 0 0 0 0 0 0 0 0 0 924 1907 1746 1491 1380 1236 1149 935
0 0 0 0 0 0 0 0 0 0 0 0 0 0 0 4 120 38 56 17 10 25 2 36 0 0 0 0 0 0 0 0 0 0 0 5 516 1775 1682 1622 1460 1365 1232 1018
0 0 0 0 0 0 0 0 0 0 0 0 0 0 0 29 0 0 48 51 3 12 13 5 33 0 0 0 0 0 0 0 0 0 595 79 316 1586 1689 1454 1515 1410 1397 1153
0 0 0 0 0 0 0 0 0 0 0 0 0 0 0 0 0 0 0 0 0 0 0 0 18 191 19 0 0 0 0 2 0 2 126 175 611 1593 1711 1608 1567 1632 1461 1226
0 0 0 0 0 0 0 0 0 0 0 0 0 0 0 0 0 0 0 0 0 0 0 0 0 94 171 12 0 0 0 0 0 151 208 756 980 1292 1457 1681 1650 1360 934 65
0 0 0 0 0 0 0 0 0 0 0 0 0 0 0 0 0 0 0 0 0 0 0 0 0 0 74 62 7 25 34 38 133 613 359 22 3 0 144 1082 1153 1107 97 0
0 0 0 0 0 0 0 0 0 0 0 0 0 0 0 0 0 0 0 0 0 0 0 0 0 0 0 0 0 9 10 1 106 362 525 601 377 131 225 286 247 63 2 0
0 0 0 0 0 0 0 0 0 0 0 0 0 0 0 0 0 0 0 0 0 0 0 0 0 0 0 0 0 0 49 3 6 73 82 316 228 153 260 136 148 8 35 0
0 0 0 0 0 0 0 0 0 0 0 0 0 1 10 8 3 0 0 0 0 0 0 0 0 0 0 0 0 0 0 7 18 14 5 0 17 161 211 97 171 49 0 0
0 0 0 0 0 0 0 0 0 0 0 1 10 0 1 5 10 5 5 3 0 0 0 0 0 0 0 0 0 0 0 0 0 2 0 0 0 0 2 31 34 5 0 0
0 0 0 0 0 0 0 0 0 0 0 2 4 3 3 3 3 5 3 3 4 4 0 0 0 0 0 0 0 0 0 0 0 0 0 0 0 0 0 10 1 2 1 0
0 0 0 0 0 0 0 0 0 0 1 3 5 4 5 6 6 7 7 7 6 5 3 0 0 0 0 0 0 0 0 0 0 0 0 0 0 0 0 0 0 0 0 1
0 0 0 0 0 0 0 0 0 0 0 0 0 3 5 10 12 10 6 8 3 5 4 2 3 0 0 0 0 0 0 0 0 0 0 0 0 0 0 0 0 0 0 0
0 0 0 0 0 0 0 0 0 0 0 0 0 0 1 3 6 8 11 4 5 8 8 4 4 2 1 1 1 1 0 0 0 0 0 0 0 0 0 0 0 0 0 0
0 0 0 0 0 0 0 0 0 0 0 0 0 0 0 0 0 5 6 4 7 8 9 7 5 4 3 3 4 2 1 0 0 0 0 0 0 0 0 0 0 0 0 0
0 0 0 0 0 0 0 0 0 0 0 0 0 0 0 0 1 4 10 5 6 5 5 4 5 4 3 0 2 3 0 0 0 0 0 0 0 0 0 0 0 0 0 0
0 0 0 0 0 0 0 0 0 0 0 0 0 0 0 0 0 0 4 6 5 4 3 3 13 4 1 1 3 3 14 1 0 0 0 0 0 0 0 1 0 0 0 0
0 0 0 0 0 0 0 0 0 0 0 0 0 0 0 0 0 0 3 2 4 5 7 8 7 3 2 3 4 2 3 19 1 1 0 0 0 0 0 0 2 0 0 0
0 0 0 0 0 0 0 0 0 0 0 0 0 0 0 0 0 0 1 2 2 5 9 11 11 8 8 4 3 4 5 5 6 6 2 1 0 0 0 0 0 0 0 0
0 0 0 0 0 0 0 0 0 0 0 0 0 0 0 0 0 0 0 2 2 5 5 4 6 13 10 11 5 5 7 7 7 6 5 6 5 5 4 3 1 1 0 0
0 0 0 0 0 0 0 0 0 0 0 0 0 0 0 0 0 0 0 0 0 0 0 2 4 5 4 4 6 7 7 7 7 7 7 8 7 6 6 5 5 4 3 0
0 0 0 0 0 0 0 0 0 0 0 0 0 0 0 0 0 0 0 0 0 0 0 0 0 0 0 0 4 4 5 4 6 9 9 3 7 6 7 7 5 4 5 3
0 0 0 0 0 0 0 0 0 0 0 0 0 0 0 0 0 0 0 0 0 0 0 0 0 0 0 0 0 0 1 2 3 6 7 8 8 9 9 9 8 7 7 7
0 0 0 0 0 0 0 0 0 0 0 0 0 0 0 0 0 0 0 0 0 0 0 0 0 0 0 0 0 0 0 0 0 0 2 5 6 6 7 6 6 6 6 5
0 0 0 0 0 0 0 0 0 0 0 0 0 0 0 0 0 0 0 0 0 0 0 0 0 0 0 0 0 0 0 0 0 0 0 0 1 3 3 3 3 3 2 1
CIN
0 0 0 0 0 0 0 0 0 0 0 0 0 0 0 -9 -447 -441 -433 -458 -548 -424 0 0 -407 -33 0 -24 0 0 0 0 -82 -17 -267 -30 -49 -176 -280 -205 -189 -189 -211 -180
0 0 0 0 0 0 0 0 0 0 0 0 0 0 0 0 -306 -270 -229 -266 -298 -243 -324 -6 0 -292 -201 -196 -522 0 0 0 0 0 0 -369 -47 -69 -203 -226 -185 -199 -205 -187
0 0 0 0 0 0 0 0 0 0 0 0 0 0 0 0 -161 -212 -220 -141 -194 -219 -218 -261 -403 -524 0 0 0 0 0 0 0 0 0 0 -225 -59 -114 -206 -170 -181 -179 -188
0 0 0 0 0 0 0 0 0 0 0 0 0 0 0 -159 -83 -245 -202 -131 -102 -208 -42 -135 0 0 0 0 0 0 0 0 0 0 0 -311 -325 -113 -119 -167 -154 -190 -190 -221
0 0 0 0 0 0 0 0 0 0 0 0 0 0 0 -173 0 0 -192 -190 -61 -308 -186 -67 -173 0 0 0 0 0 0 0 0 0 -329 -649 -372 -135 -111 -167 -132 -139 -158 -203
0 0 0 0 0 0 0 0 0 0 0 0 0 0 0 0 0 0 0 0 0 0 0 0 -199 -91 -180 0 0 0 0 -166 0 -68 -359 -396 -351 -169 -83 -164 -138 -111 -129 -147
0 0 0 0 0 0 0 0 0 0 0 0 0 0 0 0 0 0 0 0 0 0 0 0 0 -137 -110 -184 0 0 0 0 0 -448 -371 -106 -91 -5 -86 -121 -108 -108 -146 -497
0 0 0 0 0 0 0 0 0 0 0 0 0 0 0 0 0 0 0 0 0 0 0 0 0 0 -143 -132 -118 -107 -159 -128 -211 -87 -20 -70 -9 0 -155 -66 -95 -115 -452 0
0 0 0 0 0 0 0 0 0 0 0 0 0 0 0 0 0 0 0 0 0 0 0 0 0 0 0 0 0 -175 -178 -198 -176 -61 -40 -27 -45 -129 -8 -66 -139 -198 -39 0
0 0 0 0 0 0 0 0 0 0 0 0 0 0 0 0 0 0 0 0 0 0 0 0 0 0 0 0 0 0 -191 -235 -224 -150 -145 -106 -112 -94 -112 -96 -72 -323 -326 0
0 0 0 0 0 0 0 0 0 0 0 0 0 0 0 0 -6 0 0 0 -1 0 0 0 0 0 0 0 0 0 0 -150 -204 -186 -294 -76 -160 -196 -174 -275 -275 -325 0 0
0 0 0 0 0 0 0 0 0 0 0 -1 0 0 0 0 0 0 0 -1 0 0 0 0 0 0 0 0 0 0 0 0 0 -176 -182 0 0 0 -349 -236 -397 -499 0 0
0 0 0 0 0 0 0 0 0 0 0 0 0 0 0 0 0 0 0 0 0 -1 -2 0 0 0 0 0 0 0 0 0 0 0 0 0 0 -11 0 -322 0 0 0 -19
0 0 0 0 0 0 0 0 0 0 0 0 0 0 0 0 0 0 0 0 0 0 0 0 0 0 0 0 0 0 0 0 0 0 0 0 0 0 0 0 0 0 0 0
0 0 0 0 0 0 0 0 0 0 0 0 -1 0 0 0 0 0 0 0 0 0 0 0 -8 0 0 0 0 0 0 0 0 0 0 0 0 0 0 0 0 0 0 0
0 0 0 0 0 0 0 0 0 0 0 0 0 0 0 0 0 0 0 0 0 0 0 0 0 0 0 0 0 0 0 0 0 0 0 0 0 0 0 0 0 0 0 0
0 0 0 0 0 0 0 0 0 0 0 0 0 0 0 0 0 0 0 0 0 0 0 0 0 0 0 0 0 0 0 0 0 0 0 0 0 0 0 0 0 0 0 0
0 0 0 0 0 0 0 0 0 0 0 0 0 0 0 0 0 0 0 0 0 0 0 0 0 0 0 0 0 0 0 0 0 0 0 0 0 0 0 0 0 0 0 0
0 0 0 0 0 0 0 0 0 0 0 0 0 0 0 0 0 0 0 0 0 0 0 0 0 0 0 0 0 0 0 0 0 0 0 0 0 0 0 -88 0 0 0 0
0 0 0 0 0 0 0 0 0 0 0 0 0 0 0 0 0 0 0 0 0 0 0 0 0 0 0 0 0 0 0 -3 0 0 0 0 0 0 0 0 -174 0 0 0
0 0 0 0 0 0 0 0 0 0 0 0 0 0 0 0 0 0 0 0 0 0 0 0 0 0 0 0 0 0 0 0 0 0 0 0 0 0 0 0 0 0 0 0
0 0 0 0 0 0 0 0 0 0 0 0 0 0 0 0 0 0 0 0 0 0 -1 0 0 0 0 0 0 0 0 0 0 0 0 0 0 0 0 0 0 0 0 0
0 0 0 0 0 0 0 0 0 0 0 0 0 0 0 0 0 0 0 0 0 0 0 0 0 0 0 0 0 0 0 0 0 0 0 0 0 0 0 0 0 0 0 0
0 0 0 0 0 0 0 0 0 0 0 0 0 0 0 0 0 0 0 0 0 0 0 0 0 0 0 0 0 0 0 0 0 0 0 0 0 0 0 0 0 0 0 0
0 0 0 0 0 0 0 0 0 0 0 0 0 0 0 0 0 0 0 0 0 0 0 0 0 0 0 0 0 0 0 0 -1 0 0 0 0 0 0 0 0 0 0 0
0 0 0 0 0 0 0 0 0 0 0 0 0 0 0 0 0 0 0 0 0 0 0 0 0 0 0 0 0 0 0 0 0 0 0 0 0 0 0 0 0 0 0 0
0 0 0 0 0 0 0 0 0 0 0 0 0 0 0 0 0 0 0 0 0 0 0 0 0 0 0 0 0 0 0 0 0 0 0 0 0 0 0 0 0 0 0 0
Wind_Speed
2 8 8 4 5 8 6 2 4 3 3 5 7 9 8 4 7 9 11 13 10 9 7 6 5 6 5 14 4 5 7 5 1 5 12 12 12 11 11 11 11 10 9 9
2 4 9 11 8 6 7 5 5 5 0 3 7 8 10 8 11 7 7 7 9 8 8 4 5 1 9 16 10 4 5 1 4 6 6 12 13 13 11 12 11 10 10 10
1 3 5 6 4 2 2 3 1 0 2 5 7 10 7 9 10 12 9 6 7 5 10 9 5 2 7 10 12 9 8 4 7 6 9 11 14 14 14 12 10 11 11 10
3 3 2 5 2 5 7 3 4 3 5 6 6 9 10 3 4 13 13 13 12 7 5 7 7 9 5 4 4 6 9 9 8 6 12 9 14 17 15 12 13 12 11 11
5 3 1 4 2 2 5 2 4 4 5 6 9 8 7 2 6 9 11 12 11 9 11 7 6 5 5 7 9 15 12 12 11 12 14 10 16 16 15 11 12 11 10 11
2 4 7 4 5 5 3 5 3 3 5 7 7 6 6 8 12 11 9 9 11 13 9 10 10 6 7 8 9 13 12 13 11 8 16 10 13 17 16 12 13 10 11 7
2 2 3 2 5 4 2 6 5 4 6 7 5 6 8 12 12 10 7 10 11 10 7 9 9 8 7 8 10 12 11 11 11 14 17 10 14 16 13 13 11 8 10 11
3 3 3 1 0 0 4 3 4 6 7 9 10 12 13 13 12 13 12 12 9 7 9 9 8 6 6 8 10 9 7 6 9 9 6 8 11 11 13 9 11 11 12 9
5 5 3 1 5 3 3 4 4 5 9 10 14 14 14 13 14 13 14 12 10 8 8 8 7 7 7 7 10 7 8 3 5 2 6 7 9 14 19 5 5 9 11 11
4 4 5 4 4 4 3 4 6 6 8 11 13 14 14 11 11 12 12 12 10 7 9 10 10 10 10 11 7 7 7 7 3 3 2 3 4 4 5 6 4 3 5 9
0 1 2 3 4 4 1 4 7 9 10 12 13 14 13 12 11 11 11 10 9 11 10 10 11 12 12 14 11 9 6 5 4 3 5 4 3 4 2 1 4 4 5 5
6 6 5 3 5 3 1 4 7 10 13 11 12 12 13 12 11 11 12 10 10 11 11 12 11 15 15 12 10 10 7 5 4 1 2 4 4 5 4 5 5 7 2 5
5 6 5 6 6 2 1 5 6 9 10 13 11 11 13 13 12 14 12 12 11 11 11 11 11 13 15 13 8 7 6 6 5 4 3 3 4 4 5 4 6 6 9 12
4 7 4 5 4 3 2 5 7 7 8 10 11 12 12 13 14 13 11 12 13 13 13 12 10 12 14 12 7 5 5 8 4 5 3 3 4 4 3 3 4 4 6 5
6 3 6 7 5 3 2 3 6 7 10 12 10 11 13 14 13 13 13 12 12 11 13 10 9 10 9 8 8 9 6 4 4 4 4 5 4 4 4 4 5 5 2 4
7 7 7 6 7 4 2 5 4 6 7 8 10 12 15 14 13 12 12 12 12 11 10 10 8 9 9 10 10 7 7 12 8 4 4 3 4 4 4 5 4 4 4 4
8 5 4 4 5 3 3 2 3 5 6 7 9 11 11 13 13 12 12 13 12 11 9 10 10 9 9 9 10 8 7 7 9 6 4 4 3 4 5 4 4 4 5 5
5 6 7 7 5 5 4 4 2 4 4 7 8 9 10 11 13 13 12 12 12 12 10 12 11 12 8 8 8 7 7 5 4 5 6 6 5 4 3 4 4 4 5 5
6 8 7 7 6 5 5 5 5 5 6 6 6 9 9 8 10 12 12 10 11 13 16 16 23 17 11 9 8 6 5 5 4 4 4 5 4 4 4 4 4 4 5 4
6 5 7 5 5 6 6 5 6 6 6 4 5 7 9 12 11 11 12 9 9 8 12 13 14 13 14 8 6 4 6 4 3 4 4 3 5 5 5 6 4 3 5 5
8 7 7 6 5 6 7 5 6 7 7 5 3 5 7 8 10 9 12 10 15 16 14 18 12 10 8 10 10 8 8 7 8 8 8 8 6 5 5 4 3 4 4 2
6 6 6 6 4 4 5 6 7 6 7 6 4 3 4 7 9 9 5 6 9 20 12 10 11 21 14 18 9 9 9 9 7 7 7 7 8 8 6 6 4 4 3 4
6 6 6 6 6 5 2 5 6 7 7 7 6 4 3 2 3 4 6 9 7 11 8 9 19 24 23 11 10 10 11 10 9 8 8 7 7 7 7 8 7 6 6 7
6 6 6 5 3 2 5 5 6 5 7 7 7 6 5 3 2 3 4 9 10 9 7 11 15 20 17 9 10 11 10 11 10 9 9 10 9 8 8 9 9 9 9 9
7 6 4 4 5 5 6 6 3 4 5 3 6 6 6 5 3 3 3 3 7 6 5 11 15 15 7 7 8 9 9 9 9 9 9 9 9 8 8 8 8 9 8 8
6 6 6 7 5 5 5 4 4 3 4 2 3 2 3 5 5 5 4 3 2 4 4 4 5 5 6 6 6 7 7 7 8 8 9 9 9 9 9 9 9 9 8 8
5 5 4 3 4 5 5 5 5 6 5 4 4 3 3 4 5 5 6 5 4 3 3 3 4 5 5 5 5 5 5 5 6 6 6 6 7 7 8 8 8 8 8 9
Wind_Direction
94 96 87 76 30 18 64 105 120 155 161 282 310 320 329 307 340 5 4 359 9 4 352 353 318 92 346 275 177 194 118 119 121 300 307 257 238 223 193 204 207 205 202 208
57 91 106 81 31 30 31 39 104 125 273 245 295 318 336 348 340 356 349 346 343 1 334 2 60 308 230 246 257 187 133 192 237 250 290 283 245 227 208 205 214 203 206 202
223 97 141 34 344 60 79 21 34 277 295 326 314 320 302 328 337 330 337 312 315 332 342 338 356 257 284 319 352 355 327 300 242 245 266 274 259 235 217 203 204 208 206 196
179 14 183 239 280 87 106 29 360 311 307 313 300 296 283 261 297 321 321 327 324 322 277 281 309 310 308 287 312 304 292 300 252 244 278 272 260 238 217 201 207 200 201 198
121 86 83 275 140 224 213 264 349 337 316 316 328 327 304 77 358 324 311 311 311 311 313 299 235 250 274 302 297 302 307 300 329 302 312 266 247 245 219 197 205 202 203 196
116 142 208 192 289 315 117 268 263 293 300 312 331 311 268 327 332 324 321 312 314 325 317 315 305 200 225 250 274 279 301 295 279 326 348 236 227 232 222 197 202 195 194 182
99 124 289 211 290 296 191 250 309 294 302 304 289 251 289 306 307 307 290 302 307 313 309 300 308 303 271 263 257 260 273 274 295 7 20 13 327 251 219 206 182 160 137 136
97 103 265 1 230 224 217 284 277 295 297 296 288 302 302 304 303 308 309 310 300 286 297 301 311 322 282 277 269 273 285 254 324 357 8 33 265 297 295 216 166 163 142 136
163 204 185 99 141 154 175 230 272 270 288 296 304 300 303 304 307 303 306 304 303 291 293 300 296 307 298 287 300 299 302 345 335 325 56 289 319 22 278 151 171 186 154 152
102 258 163 166 157 185 227 250 290 284 289 289 288 304 304 303 306 305 301 304 311 304 306 303 304 304 304 302 289 290 293 323 3 351 282 211 236 214 231 125 212 146 155 156
94 106 61 192 188 163 271 297 293 284 275 286 292 291 302 295 296 293 296 300 311 306 295 290 294 300 305 306 310 302 284 285 322 3 343 339 306 292 331 21 145 173 190 149
214 191 158 196 157 163 320 287 291 306 314 315 309 319 320 316 310 305 302 304 301 298 308 305 302 296 297 299 304 305 301 300 297 338 326 334 338 329 355 276 213 167 148 168
179 175 172 145 157 183 269 300 311 323 331 325 329 322 317 311 310 310 304 301 294 289 277 270 274 279 286 291 300 294 291 288 303 314 310 310 327 346 336 325 261 257 217 205
164 117 81 164 166 133 258 297 329 313 334 338 329 326 325 319 315 315 313 312 308 304 293 286 284 282 281 289 294 286 295 298 293 277 261 254 249 275 299 299 306 301 230 231
163 153 146 137 124 182 221 1 342 346 353 348 339 344 338 327 324 324 322 327 326 319 317 303 288 276 284 297 303 302 296 261 265 272 256 225 225 237 227 235 256 275 330 128
137 122 128 142 172 160 56 0 334 330 340 327 331 345 344 333 327 325 330 339 333 339 341 341 346 332 325 329 324 304 293 280 265 254 252 235 220 233 243 233 237 254 267 253
130 151 169 169 170 181 180 241 291 309 310 317 320 325 327 340 343 338 339 341 335 333 329 333 325 320 332 331 319 317 308 302 299 304 292 283 246 215 240 238 245 243 244 259
159 164 168 163 176 197 194 208 242 294 290 296 314 322 334 341 337 333 339 338 335 340 341 337 327 328 326 313 296 281 280 282 299 308 312 308 290 269 239 224 236 251 266 258
152 163 178 188 199 195 190 201 220 248 283 301 321 324 321 316 327 334 343 344 353 350 344 336 339 337 321 296 306 303 302 282 268 257 256 275 290 276 278 268 250 252 249 250
156 184 181 195 173 180 206 209 212 237 263 290 313 328 331 345 342 337 349 348 354 345 339 344 350 346 343 340 318 261 266 275 278 276 272 265 257 255 238 232 238 242 272 277
182 185 186 188 225 225 217 215 206 230 250 247 284 316 322 327 336 334 0 0 353 352 356 1 4 359 355 10 14 13 8 17 16 5 6 354 335 317 300 272 294 315 318 330
188 193 206 204 213 243 229 228 209 224 243 259 248 262 322 340 336 337 328 346 332 352 358 5 7 14 16 21 19 20 18 25 27 23 15 7 7 2 10 14 355 335 320 318
187 194 203 202 213 240 251 226 215 213 231 247 252 227 228 254 304 336 342 332 332 350 2 6 12 18 19 16 15 19 22 22 23 23 20 19 18 14 12 16 5 356 359 349
195 209 215 215 203 238 254 253 217 223 231 244 245 219 195 191 293 259 278 302 327 7 12 11 18 20 20 16 17 17 17 19 17 14 17 18 21 18 15 14 6 360 0 360
198 214 225 186 218 239 246 243 257 235 259 273 264 247 210 200 183 216 246 302 338 13 10 3 13 12 10 15 17 15 15 13 12 13 17 18 20 21 19 16 16 11 9 8
201 210 216 217 219 226 225 183 214 225 212 236 281 290 237 191 178 178 214 224 327 357 6 346 347 355 357 359 3 11 12 8 12 11 16 18 19 20 19 22 25 29 28 23
241 228 229 237 234 230 199 190 193 234 215 209 228 262 273 203 209 203 201 215 230 260 299 324 337 346 347 350 355 1 7 5 3 3 7 12 15 14 13 15 16 20 24 27